This is the latest recevied weather packets stored in our database for station/object OH3FZQ-L1. If no packets are shown the sender has not sent any weather packets the latest 10 day(s).
| Time | Temp. | Humidity | Pressure | Rain* | Wind** | Luminosity | Snow |
|---|---|---|---|---|---|---|---|
| 1777772885 | 25.56° C | 41% | 997.3 hPa | - | - | - | - |
| 1777771984 | 26.11° C | 41% | 997.3 hPa | - | - | - | - |
| 1777771084 | 26.11° C | 41% | 997.2 hPa | - | - | - | - |
| 1777770184 | 26.11° C | 40% | 997.4 hPa | - | - | - | - |
| 1777769284 | 26.67° C | 40% | 997.3 hPa | - | - | - | - |
| 1777768383 | 26.67° C | 41% | 997.4 hPa | - | - | - | - |
| 1777767483 | 26.67° C | 40% | 997.4 hPa | - | - | - | - |
| 1777766583 | 26.67° C | 40% | 997.5 hPa | - | - | - | - |
| 1777765683 | 27.22° C | 40% | 997.3 hPa | - | - | - | - |
| 1777764785 | 27.22° C | 40% | 997.3 hPa | - | - | - | - |
| 1777763885 | 27.78° C | 40% | 997.1 hPa | - | - | - | - |
| 1777762985 | 27.78° C | 40% | 997.2 hPa | - | - | - | - |
| 1777762085 | 28.33° C | 39% | 997.3 hPa | - | - | - | - |
| 1777761185 | 28.33° C | 39% | 997.7 hPa | - | - | - | - |
| 1777760284 | 28.89° C | 38% | 997.6 hPa | - | - | - | - |
| 1777759384 | 28.89° C | 38% | 997.7 hPa | - | - | - | - |
| 1777758484 | 29.44° C | 38% | 997.8 hPa | - | - | - | - |
| 1777757584 | 30° C | 37% | 997.7 hPa | - | - | - | - |
| 1777756684 | 30.56° C | 37% | 997.9 hPa | - | - | - | - |
| 1777755784 | 31.11° C | 37% | 998.1 hPa | - | - | - | - |
| 1777754884 | 31.67° C | 36% | 998.1 hPa | - | - | - | - |
| 1777753984 | 32.22° C | 35% | 998.2 hPa | - | - | - | - |
| 1777753084 | 32.78° C | 35% | 998.3 hPa | - | - | - | - |
| 1777752183 | 33.89° C | 34% | 998.3 hPa | - | - | - | - |
| 1777751283 | 35° C | 33% | 998.4 hPa | - | - | - | - |
* Rain since midnight (hover to see other rain measurements)
** Current wind speed in m/s (hover to see current wind gust speed)